When you browse on this site, cookies collect data to enhance your experience and personalize the content and advertising you see.
Visit our Privacy Policy to learn more. By continuing to use the site, you agree to this use of cookies and data.

Previsão horária em Abanosimovka

Hoje, 24 Setembro, Quinta-feira

Tempo Temperatura Precipitação Vento Pressão Humidade
00:00 +13°C° 0 mm 0 m/s 750 mmHg 71%
01:00 +14°C° 0 mm 1 m/s 751 mmHg 72%
02:00 +14°C° 0 mm 1 m/s 751 mmHg 74%
03:00 +13°C° 0 mm 1 m/s 752 mmHg 79%
04:00 +13°C° 0 mm 1 m/s 752 mmHg 80%
05:00 +13°C° 0 mm 1 m/s 752 mmHg 82%
06:00 +12°C° 0 mm 1 m/s 752 mmHg 83%
07:00 +14°C° 0 mm 1 m/s 752 mmHg 76%
08:00 +16°C° 0 mm 2 m/s 752 mmHg 69%
09:00 +18°C° 0 mm 2 m/s 752 mmHg 60%
10:00 +19°C° 0 mm 2 m/s 752 mmHg 55%
11:00 +21°C° 0 mm 2 m/s 752 mmHg 49%
12:00 +23°C° 0 mm 2 m/s 752 mmHg 44%
13:00 +24°C° 0 mm 2 m/s 752 mmHg 41%
14:00 +24°C° 0 mm 2 m/s 752 mmHg 39%
15:00 +25°C° 0 mm 2 m/s 752 mmHg 36%
16:00 +23°C° 0 mm 2 m/s 752 mmHg 41%
17:00 +21°C° 0 mm 2 m/s 751 mmHg 45%
18:00 +19°C° 0 mm 2 m/s 751 mmHg 50%
19:00 +18°C° 0 mm 2 m/s 752 mmHg 52%
20:00 +17°C° 0 mm 2 m/s 752 mmHg 53%
21:00 +17°C° 0 mm 3 m/s 752 mmHg 55%
22:00 +16°C° 0 mm 3 m/s 752 mmHg 57%
23:00 +14°C° 0 mm 3 m/s 752 mmHg 59%

Amanhã, 25 Setembro, Sexta-feira

Tempo Temperatura Precipitação Vento Pressão Humidade
00:00 +14°C° 0 mm 3 m/s 752 mmHg 61%
01:00 +13°C° 0 mm 3 m/s 752 mmHg 63%
02:00 +13°C° 0 mm 3 m/s 753 mmHg 65%
03:00 +12°C° 0 mm 3 m/s 753 mmHg 68%
04:00 +12°C° 0 mm 3 m/s 753 mmHg 72%
05:00 +12°C° 0 mm 3 m/s 753 mmHg 76%
06:00 +11°C° 0 mm 3 m/s 753 mmHg 80%
07:00 +13°C° 0 mm 4 m/s 753 mmHg 74%
08:00 +14°C° 0 mm 4 m/s 753 mmHg 68%
09:00 +17°C° 0 mm 4 m/s 753 mmHg 62%
10:00 +19°C° 0 mm 4 m/s 753 mmHg 56%
11:00 +20°C° 0 mm 5 m/s 753 mmHg 50%
12:00 +22°C° 0 mm 5 m/s 753 mmHg 44%
13:00 +22°C° 0 mm 5 m/s 753 mmHg 43%
14:00 +23°C° 0 mm 5 m/s 753 mmHg 42%
15:00 +23°C° 0 mm 5 m/s 753 mmHg 41%
16:00 +21°C° 0 mm 4 m/s 752 mmHg 46%
17:00 +20°C° 0 mm 4 m/s 752 mmHg 51%
18:00 +19°C° 0 mm 3 m/s 752 mmHg 56%
19:00 +18°C° 0 mm 4 m/s 752 mmHg 55%
20:00 +17°C° 0 mm 4 m/s 752 mmHg 53%
21:00 +16°C° 0 mm 5 m/s 753 mmHg 52%
22:00 +15°C° 0 mm 5 m/s 753 mmHg 52%
23:00 +14°C° 0 mm 4 m/s 753 mmHg 52%

Depois de amanhã, 26 Setembro, Sábado

Tempo Temperatura Precipitação Vento Pressão Humidade
00:00 +13°C° 0 mm 4 m/s 753 mmHg 52%
01:00 +13°C° 0 mm 4 m/s 753 mmHg 54%
02:00 +12°C° 0 mm 4 m/s 753 mmHg 55%
03:00 +11°C° 0 mm 4 m/s 753 mmHg 56%
04:00 +11°C° 0 mm 4 m/s 753 mmHg 57%
05:00 +11°C° 0 mm 4 m/s 753 mmHg 57%
06:00 +10°C° 0 mm 4 m/s 753 mmHg 57%
07:00 +12°C° 0 mm 4 m/s 753 mmHg 54%
08:00 +13°C° 0 mm 4 m/s 753 mmHg 51%
09:00 +15°C° 0 mm 5 m/s 753 mmHg 48%
10:00 +17°C° 0 mm 5 m/s 753 mmHg 45%
11:00 +20°C° 0 mm 5 m/s 753 mmHg 42%
12:00 +22°C° 0 mm 5 m/s 753 mmHg 38%
13:00 +22°C° 0 mm 5 m/s 753 mmHg 37%
14:00 +23°C° 0 mm 5 m/s 753 mmHg 36%
15:00 +25°C° 0 mm 5 m/s 753 mmHg 36%
16:00 +22°C° 0 mm 5 m/s 753 mmHg 39%
17:00 +21°C° 0 mm 4 m/s 753 mmHg 43%
18:00 +19°C° 0 mm 4 m/s 753 mmHg 47%
19:00 +19°C° 0 mm 4 m/s 753 mmHg 47%
20:00 +17°C° 0 mm 5 m/s 753 mmHg 46%
21:00 +16°C° 0 mm 5 m/s 753 mmHg 46%
22:00 +16°C° 0 mm 5 m/s 754 mmHg 46%
23:00 +15°C° 0 mm 5 m/s 754 mmHg 45%

27 Setembro, Domingo

Tempo Temperatura Precipitação Vento Pressão Humidade
00:00 +15°C° 0 mm 5 m/s 754 mmHg 45%
01:00 +14°C° 0 mm 5 m/s 754 mmHg 45%
02:00 +14°C° 0 mm 5 m/s 754 mmHg 45%
03:00 +13°C° 0 mm 4 m/s 755 mmHg 45%
04:00 +12°C° 0 mm 4 m/s 755 mmHg 46%
05:00 +12°C° 0 mm 4 m/s 755 mmHg 48%
06:00 +11°C° 0 mm 4 m/s 755 mmHg 49%
07:00 +12°C° 0 mm 5 m/s 755 mmHg 46%
08:00 +13°C° 0 mm 5 m/s 756 mmHg 44%
09:00 +14°C° 0 mm 6 m/s 756 mmHg 41%
10:00 +16°C° 0 mm 6 m/s 756 mmHg 38%
11:00 +17°C° 0 mm 6 m/s 756 mmHg 34%
12:00 +20°C° 0 mm 7 m/s 756 mmHg 31%
13:00 +20°C° 0 mm 7 m/s 756 mmHg 30%
14:00 +21°C° 0 mm 7 m/s 755 mmHg 29%
15:00 +21°C° 0 mm 7 m/s 755 mmHg 29%
16:00 +20°C° 0 mm 6 m/s 755 mmHg 32%
17:00 +17°C° 0 mm 5 m/s 755 mmHg 35%
18:00 +17°C° 0 mm 4 m/s 755 mmHg 38%
19:00 +15°C° 0 mm 5 m/s 755 mmHg 38%
20:00 +15°C° 0 mm 5 m/s 755 mmHg 39%
21:00 +14°C° 0 mm 6 m/s 756 mmHg 39%
22:00 +14°C° 0 mm 6 m/s 756 mmHg 40%
23:00 +14°C° 0 mm 6 m/s 756 mmHg 41%

28 Setembro, Segunda-feira

Tempo Temperatura Precipitação Vento Pressão Humidade
00:00 +13°C° 0 mm 5 m/s 756 mmHg 41%
01:00 +13°C° 0 mm 6 m/s 756 mmHg 41%
02:00 +13°C° 0 mm 6 m/s 756 mmHg 40%
03:00 +13°C° 0 mm 6 m/s 756 mmHg 39%
04:00 +13°C° 0 mm 6 m/s 756 mmHg 40%
05:00 +11°C° 0 mm 6 m/s 756 mmHg 41%
06:00 +11°C° 0 mm 6 m/s 756 mmHg 41%
07:00 +13°C° 0 mm 6 m/s 756 mmHg 41%
08:00 +12°C° 0 mm 7 m/s 756 mmHg 40%
09:00 +14°C° 0 mm 7 m/s 756 mmHg 39%
10:00 +15°C° 0 mm 7 m/s 757 mmHg 36%
11:00 +17°C° 0 mm 7 m/s 757 mmHg 34%
12:00 +18°C° 0 mm 7 m/s 757 mmHg 32%
13:00 +18°C° 0 mm 7 m/s 757 mmHg 32%
14:00 +19°C° 0 mm 6 m/s 756 mmHg 31%
15:00 +19°C° 0 mm 6 m/s 756 mmHg 31%
16:00 +19°C° 0 mm 6 m/s 756 mmHg 31%
17:00 +17°C° 0 mm 5 m/s 756 mmHg 32%
18:00 +17°C° 0 mm 5 m/s 756 mmHg 32%
19:00 +17°C° 0 mm 5 m/s 756 mmHg 31%
20:00 +16°C° 0 mm 5 m/s 756 mmHg 30%
21:00 +16°C° 0 mm 5 m/s 756 mmHg 29%
22:00 +16°C° 0 mm 5 m/s 756 mmHg 30%
23:00 +15°C° 0 mm 6 m/s 757 mmHg 31%

29 Setembro, Terça-feira

Tempo Temperatura Precipitação Vento Pressão Humidade
00:00 +15°C° 0 mm 6 m/s 757 mmHg 31%
01:00 +14°C° 0 mm 5 m/s 757 mmHg 33%
02:00 +13°C° 0 mm 5 m/s 757 mmHg 35%
03:00 +12°C° 0 mm 5 m/s 757 mmHg 37%
04:00 +12°C° 0 mm 5 m/s 757 mmHg 38%
05:00 +12°C° 0 mm 5 m/s 757 mmHg 40%
06:00 +10°C° 0 mm 5 m/s 757 mmHg 41%
07:00 +11°C° 0 mm 6 m/s 757 mmHg 40%
08:00 +13°C° 0 mm 6 m/s 757 mmHg 39%
09:00 +14°C° 0 mm 7 m/s 757 mmHg 38%
10:00 +15°C° 0 mm 7 m/s 757 mmHg 36%
11:00 +16°C° 0 mm 7 m/s 756 mmHg 34%
12:00 +16°C° 0 mm 7 m/s 756 mmHg 32%
13:00 +17°C° 0 mm 7 m/s 756 mmHg 31%
14:00 +18°C° 0 mm 7 m/s 756 mmHg 30%
15:00 +18°C° 0 mm 7 m/s 756 mmHg 29%
16:00 +17°C° 0 mm 6 m/s 755 mmHg 31%
17:00 +16°C° 0 mm 6 m/s 755 mmHg 33%
18:00 +15°C° 0 mm 5 m/s 755 mmHg 34%
19:00 +15°C° 0 mm 5 m/s 755 mmHg 35%
20:00 +14°C° 0 mm 5 m/s 755 mmHg 35%
21:00 +14°C° 0 mm 5 m/s 755 mmHg 36%
22:00 +13°C° 0 mm 6 m/s 755 mmHg 37%
23:00 +13°C° 0 mm 6 m/s 755 mmHg 37%
Mostrar mais